Погода в Кучко-Памаше

Россия / Республика Марий Эл     56°22′39″N   48°57′54″E
темп.,
°C
ветер,
м/с
пор.,
м/с
влажн.,
%
обл.,
%
осадки,
мм/ч
давл.,
гПа
погр.,
м
13 мая, чт
чт1300:00+14сз007280 0.0 102510
03:00+14в116786 0.0 102611
06:00+17в246574 0.0 1025119
09:00+22юв46425 0.0 1025716
12:00+25юв5734100 0.0 10241523
15:00+25юв563999 0.0 10231309
18:00+21юв3862100 0.0 1022210
21:00+19юв4136498 0.0 1021352
14 мая, пт
пт1400:00+18ююв4146685 0.3 1021436
03:00+14ююв278892 1.2 1021135
06:00+16ююв387763 0.1 1021305
09:00+21ююз3556100 0.1 1021571
12:00+24ююз4650100 0.0 10211269
15:00+25ююз3549100 0.0 10201279
18:00+23ююз24635 0.0 1019124
21:00+18ю228136 0.1 102011
15 мая, сб
сб1500:00+16ю227779 0.0 101914
03:00+16ююв2277100 0.0 101919
06:00+18ююв2869100 0.0 1019233
09:00+23ю5845100 0.0 1019505
12:00+27ююз5933100 0.0 10191052
15:00+27ююз5936100 0.0 10181253
18:00+23ю4114779 0.0 1017579
21:00+18ю31360100 0.0 1017296
16 мая, вс
вс1600:00+16ю3135923 0.0 1017271
03:00+15ю296122 0.0 1017178
06:00+18ю3125653 0.0 1017395
09:00+24ююз5114298 0.0 1017712
12:00+28ююз6113289 0.0 10161658
15:00+28юз5934100 0.0 10162243
18:00+24ююз3953100 0.0 1015344
21:00+18юз227635 0.0 101527
17 мая, пн
пн1700:00+16зюз228677 0.0 101643
03:00+15зюз229346 0.0 101719
06:00+18зюз24807 0.0 1018203
09:00+23зюз34585 0.0 1018883
12:00+26з46426 0.0 10171828
15:00+27зсз35378 0.0 10172146
18:00+24с35549 0.0 1017212
21:00+17св227180 0.1 101916